Regional Weather Roundup
Issued by NWS

Home | Current Version | Previous Version | Graphics & Text | Print | Product List | Glossary Off
Versions: 1 2 3 4 5 6 7 8 9 10 11 12 13 14 15 16 17 18 19 20 21 22 23 24 25 26 27 28 29 30 31 32 33 34 35 36 37 38 39 40 41 42 43 44 45 46 47 48 49 50

000
ASUS44 KMEG 261210
RWRTN
TENNESSEE HOURLY STATE WEATHER ROUNDUP
NATIONAL WEATHER SERVICE MEMPHIS TN
700 AM CDT TUE JUL 26 2016

TNZ002-004-019-021-049-052-054-088>092-261300-
WEST TENNESSEE

CITY           SKY/WX    TMP DP  RH WIND       PRES   REMARKS
MEMPHIS INTL   PTCLDY    81  72  74 CALM      30.01R
NWS MEMPHIS      N/A     76 N/A N/A MISG        N/A
JACKSON        SUNNY     76  74  93 S3        30.03R
DYERSBURG      SUNNY     73  72  94 MISG      30.02R
UNION CITY     SUNNY     73  73 100 CALM      30.01S
PARIS          SUNNY     72  70  94 CALM      30.04R
LEXINGTON      SUNNY     73  72  94 CALM      30.03R
$$

TNZ008-025-027-028-033-062-065-066-261300-
NORTH MIDDLE TENNESSEE

CITY           SKY/WX    TMP DP  RH WIND       PRES   REMARKS
NASHVILLE      MOSUNNY   77  73  87 CALM      30.04S
CLARKSVILLE    SUNNY     73  71  93 CALM      30.03R
SMYRNA         SUNNY     76  75  96 S6        30.05R
COOKEVILLE     SUNNY     75  73  94 CALM      30.06S
CROSSVILLE     CLOUDY    73  70  90 CALM      30.13R
$$

TNZ061-075-076-078-094-096-097-261300-
SOUTH MIDDLE TENNESSEE

CITY           SKY/WX    TMP DP  RH WIND       PRES   REMARKS
FAYETTEVILLE   MOSUNNY   77  73  88 S5        30.08R
TULLAHOMA      MOSUNNY   73  72  94 CALM      30.09R
WINCHESTER     MOSUNNY   75  72  88 CALM      30.08R
MCMINNVILLE    SUNNY     73  73 100 CALM      30.07S
COLUMBIA       SUNNY    N/A N/A N/A CALM      30.04R
SHELBYVILLE    CLOUDY    75  75 100 CALM      30.07R
$$

TNZ017-018-042-046-047-261300-
NORTHEAST TENNESSEE

CITY           SKY/WX    TMP DP  RH WIND       PRES   REMARKS
TRI CITIES     MOSUNNY   74  71  91 SE3       30.12R
ELIZABETHTON   CLOUDY    73  70  88 CALM      30.12R
$$

TNZ012-013-036-069-073-074-261300-
CENTRAL EAST TENNESSEE

CITY           SKY/WX    TMP DP  RH WIND       PRES   REMARKS
KNOXVILLE      CLOUDY    79  71  76 SW3       30.08R
OAK RIDGE      MOSUNNY   79  72  79 CALM      30.09R
GATLINBURG     SUNNY     73  70  88 CALM      30.09R
MORRISTOWN     SUNNY     77  73  88 SW5       30.10R
$$

TNZ083-085-099-261300-
SOUTHEAST TENNESSEE

CITY           SKY/WX    TMP DP  RH WIND       PRES   REMARKS
CHATTANOOGA    DRIZZLE   78  72  81 SW3       30.07R
$$

SKY/WX REPORTED AS FAIR MEANS FEW OR NO CLOUDS BELOW
12 THOUSAND FEET.





USA.gov is the U.S. government's official web portal to all federal, state and local government web resources and services.